TimeCST,TemperatureF,Dew PointF,Humidity,Sea Level PressureIn,VisibilityMPH,Wind Direction,Wind SpeedMPH,Gust SpeedMPH,PrecipitationIn,Events,Conditions,WindDirDegrees,DateUTC
12:53 AM,17.1,3.0,54,30.38,10.0,NNE,5.8,-,N/A,,Overcast,20,2013-01-22 06:53:00
1:53 AM,17.1,3.9,56,30.38,10.0,NNE,5.8,-,N/A,,Mostly Cloudy,30,2013-01-22 07:53:00
2:53 AM,16.0,3.9,59,30.40,10.0,NE,6.9,-,N/A,,Scattered Clouds,40,2013-01-22 08:53:00
3:53 AM,16.0,3.9,59,30.38,10.0,ENE,5.8,-,N/A,,Clear,70,2013-01-22 09:53:00
4:53 AM,15.1,3.0,59,30.39,10.0,ENE,4.6,-,N/A,,Clear,70,2013-01-22 10:53:00
5:53 AM,14.0,3.0,62,30.38,10.0,East,4.6,-,N/A,,Clear,100,2013-01-22 11:53:00
6:53 AM,12.9,3.0,65,30.39,10.0,East,5.8,-,N/A,,Clear,90,2013-01-22 12:53:00
7:53 AM,12.9,3.0,65,30.40,10.0,East,6.9,-,N/A,,Clear,80,2013-01-22 13:53:00
8:53 AM,15.1,5.0,64,30.41,10.0,East,6.9,-,N/A,,Clear,90,2013-01-22 14:53:00
9:53 AM,17.1,5.0,59,30.42,10.0,East,8.1,-,N/A,,Clear,100,2013-01-22 15:53:00
10:53 AM,19.9,5.0,52,30.43,10.0,East,8.1,-,N/A,,Clear,90,2013-01-22 16:53:00
11:53 AM,21.9,3.9,46,30.40,10.0,East,9.2,-,N/A,,Clear,90,2013-01-22 17:53:00
12:53 PM,25.0,5.0,43,30.36,10.0,SE,8.1,-,N/A,,Clear,130,2013-01-22 18:53:00
1:53 PM,27.0,7.0,43,30.32,10.0,SSE,8.1,-,N/A,,Clear,150,2013-01-22 19:53:00
2:53 PM,28.0,7.0,41,30.31,10.0,SE,8.1,-,N/A,,Clear,130,2013-01-22 20:53:00
3:53 PM,28.0,8.1,43,30.28,10.0,SE,9.2,-,N/A,,Clear,130,2013-01-22 21:53:00
4:53 PM,28.0,8.1,43,30.30,10.0,East,5.8,-,N/A,,Clear,100,2013-01-22 22:53:00
5:53 PM,25.0,8.1,49,30.30,10.0,East,4.6,-,N/A,,Clear,100,2013-01-22 23:53:00
6:53 PM,24.1,8.1,51,30.31,10.0,East,3.5,-,N/A,,Clear,80,2013-01-23 00:53:00
7:53 PM,23.0,8.1,53,30.32,10.0,ENE,6.9,-,N/A,,Clear,60,2013-01-23 01:53:00
8:53 PM,21.9,8.1,55,30.30,10.0,East,5.8,-,N/A,,Clear,90,2013-01-23 02:53:00
9:53 PM,21.0,8.1,57,30.32,10.0,East,4.6,-,N/A,,Clear,80,2013-01-23 03:53:00
10:53 PM,19.9,8.1,60,30.31,10.0,East,4.6,-,N/A,,Clear,90,2013-01-23 04:53:00
11:53 PM,18.0,8.1,65,30.30,10.0,East,3.5,-,N/A,,Clear,100,2013-01-23 05:53:00